Track COSMOS 2227 now! 10-day predictions COSMOS 2227 is classified as:
1 22284U 92093A 21108.57614365 .00000275 00000-0 17160-3 0 9992 2 22284 70.9796 177.5891 0019837 218.6903 141.2798 14.13339455460373